Airfield :
LOGIN :

Register | Disclaimer

   EN    FR    IT 

 










Legend :    VFR   Marginal VFR   IFR   Intensive IFR   Very Intensive IFR
Visi :
Ceiling :
>= 8 km
>= 3000ft
5 to 8 km
1000 to 3000 ft
1500m to 5 km
500 to 1000 ft
800 to 1500m
200 to 500 ft
< 800m
< 200 ft
Symbols :   Thunderstorms  Fog  Heavy snow  Heavy precipitations  Wind > 20 kt
SIGMETs :     Misc.  Thunderstorms  Icing  Turbulence  Mountain Waves  Volcanic Ashes







- Airport Elevation : 525 ft
- IATA code : VAF
- Download approach charts


LFLU - Valence

CURRENT METAR :
  • 131230Z AUTO 22010KT CAVOK 05/02 Q1017

EXPIRED METARs :
  • 131200Z AUTO 20006KT CAVOK 04/02 Q1017
  • 131130Z AUTO 18004KT CAVOK 03/01 Q1018
  • 131100Z AUTO VRB03KT CAVOK 02/01 Q1019
  • 131030Z AUTO VRB02KT 9999 FEW004 BKN150 01/00 Q1019
  • 131000Z AUTO VRB01KT 4200 BR SCT003 00/00 Q1020

TAF N/A
No reported NOTAMs for that airfield.
1 SIGMET reported for the Marseille FIR (LFMM) :
 
Severe mountain waves
LFMM SIGMET 3 VALID 131300/131700 LFPW
LFMM MARSEILLE FIR/UIR SEV MTW FCST E OF E00900 SFC/FL320 STNR NC=



MET'MAP, your aeronautical weather chart ! - Copyright ORBIFLY December 2007 - Disclaimer

ORBIFLY MET'MAP TEAM :

Programming & Development : Alexandra Zaïnal
Concept & Development : Baudouin d'Aumeries
Co-Development & Prog : Marc-Olivier Méhu
Technical & hardware support : Manuel Goepfert

Contact : metmap@orbifly.com




SOURCES & CREDITS :

   NOAA